Montgomery, NY

3:45 PM EDT on October 20, 2017 (GMT -0400)
Orange County

Weather History for KMGJ - May, 2013

Change the Weather History Date:

Wednesday, May 22, 2013

  Actual Average (KSWF) Record (KSWF)
Temperature  
Mean Temperature 74 °F -  
Max Temperature 82 °F 67 °F 86 °F (1992)
Min Temperature 66 °F 47 °F 33 °F (2002)
Cooling Degree Days 9    
Growing Degree Days 24 (Base 50)    
Moisture  
Dew Point 66 °F    
Average Humidity 78    
Maximum Humidity 90    
Minimum Humidity 54    
Precipitation  
Precipitation 0.00 in - - ()
Sea Level Pressure  
Sea Level Pressure 29.85 in    
Wind  
Wind Speed 4 mph (South)    
Max Wind Speed 10 mph    
Max Gust Speed 24 mph    
Visibility 8 miles    
Events      
Averages and records for this station are not official NWS values.
T = Trace of Precipitation, MM = Missing Value Source: NWS Daily Summary

Daily Weather History Graph

Daily Weather History Graph

Search for Another Location

Airport or City:

Trip Planner

Search our weather history database for the weather conditions in past years. The results will help you decide how hot, cold, wet, or windy it might be!

Date:

Astronomy

May. 22, 2013 Rise Set
Actual Time 5:31 AM EDT 8:16 PM EDT
Civil Twilight 4:59 AM EDT 8:48 PM EDT
Nautical Twilight 4:18 AM EDT 9:29 PM EDT
Astronomical Twilight 3:32 AM EDT 10:16 PM EDT
Moon 5:34 PM EDT (5/22) 3:36 AM EDT (5/22)
Length of Visible Light 15h 49m
Length of Day
14h 44m
Waxing Gibbous, 91% of the Moon is Illuminated
May 22
Waxing Gibbous
May 25
Full
May 31
Last Quarter
Jun 8
New
Jun 16
First Quarter

Hourly Weather History & Observations

Time (EDT) Temp. Heat Index Dew Point Humidity Pressure Visibility Wind Dir Wind Speed Gust Speed Precip Events Conditions
12:54 AM 71.1 °F - 64.9 °F 81% 29.83 in 10.0 mi South 3.5 mph - N/A   Clear
1:54 AM 71.1 °F - 66.0 °F 84% 29.82 in 10.0 mi SSW 5.8 mph - N/A   Clear
2:54 AM 70.0 °F - 64.9 °F 84% 29.83 in 10.0 mi SSW 3.5 mph - N/A   Clear
3:47 AM 69.8 °F - 64.4 °F 83% 29.85 in 9.0 mi Calm Calm - N/A   Mostly Cloudy
3:54 AM 69.1 °F - 66.0 °F 90% 29.84 in 9.0 mi Calm Calm - N/A   Overcast
4:54 AM 69.1 °F - 66.0 °F 90% 29.85 in 8.0 mi Calm Calm - N/A   Overcast
5:43 AM 69.8 °F - 64.4 °F 83% 29.87 in 9.0 mi East 5.8 mph - N/A   Overcast
5:54 AM 68.0 °F - 63.0 °F 84% 29.87 in 10.0 mi East 6.9 mph - N/A   Overcast
6:54 AM 69.1 °F - 64.0 °F 84% 29.88 in 7.0 mi Calm Calm - N/A   Overcast
7:54 AM 68.0 °F - 63.0 °F 84% 29.89 in 7.0 mi Calm Calm - N/A   Overcast
8:54 AM 66.9 °F - 62.1 °F 84% 29.90 in 6.0 mi South 4.6 mph - N/A   Haze
9:54 AM 68.0 °F - 62.1 °F 81% 29.90 in 7.0 mi South 4.6 mph - N/A   Overcast
10:54 AM 69.1 °F - 63.0 °F 81% 29.90 in 8.0 mi South 5.8 mph - N/A   Overcast
11:54 AM 72.0 °F - 64.9 °F 78% 29.89 in 9.0 mi Variable 5.8 mph - N/A   Overcast
12:22 PM 73.4 °F - 66.2 °F 78% 29.89 in 9.0 mi South 3.5 mph - N/A   Overcast
12:54 PM 73.0 °F - 66.0 °F 79% 29.88 in 9.0 mi SW 3.5 mph - N/A   Overcast
1:54 PM 78.1 °F - 69.1 °F 74% 29.86 in 9.0 mi SW 4.6 mph - N/A   Mostly Cloudy
2:03 PM 77.0 °F - 68.0 °F 74% 29.86 in 9.0 mi Calm Calm - N/A   Scattered Clouds
2:54 PM 78.1 °F - 69.1 °F 74% 29.84 in 8.0 mi SSW 8.1 mph - N/A   Clear
3:54 PM 79.0 °F - 69.1 °F 72% 29.83 in 10.0 mi South 3.5 mph - N/A   Clear
4:54 PM 82.9 °F 87.0 °F 70.0 °F 65% 29.81 in 10.0 mi SE 6.9 mph - N/A   Partly Cloudy
5:54 PM 82.0 °F 85.5 °F 69.1 °F 65% 29.79 in 9.0 mi South 10.4 mph - N/A   Partly Cloudy
6:54 PM 81.0 °F 84.1 °F 69.1 °F 67% 29.80 in 8.0 mi South 9.2 mph - N/A   Clear
7:54 PM 79.0 °F - 69.1 °F 72% 29.80 in 7.0 mi South 8.1 mph - N/A   Clear
8:54 PM 75.0 °F - 68.0 °F 79% 29.81 in 7.0 mi South 3.5 mph - N/A   Clear
9:54 PM 73.0 °F - 68.0 °F 84% 29.84 in 6.0 mi SSW 5.8 mph - N/A   Haze
10:54 PM 73.0 °F - 68.0 °F 84% 29.85 in 7.0 mi SSW 8.1 mph - N/A   Clear
11:54 PM 75.9 °F - 57.9 °F 54% 29.86 in 10.0 mi WSW 8.1 mph 24.2 mph N/A   Overcast